[[{"header":{"parameterUnit":"m.s-1","parameterCategory":1,"la1":30.2991,"la2":30.254,"lo1":-89.0895,"lo2":-89.0444,"dy":0.0017,"dx":0.0017,"nx":28,"ny":28,"refTime":"2025-09-10T21:00:00:Z","depth":0,"parameterNumber":2,"parameterNumberName":"U-component_of_WINDS"},"data":[0,0,0,0,0,0,0,0,0,0,0,0,0,0,0,0,0,0,0,0,0,0,0,0,0,0,0,0,0,0,0,0,0,0,0,0,0,0,0,0,0,0,0,0,0,0,0,0,0,0,0,0,0,0,0,0,0,0,-0.9672,-0.9671,0,-0.9579,-0.9578,-0.9577,-0.9521,-0.952,-0.952,-0.952,-0.9425,-0.9423,-0.942,0,0,0,0,0,0,0,0,0,0,0,0,0,-0.9802,-0.98,-0.9672,-0.9671,-0.9669,-0.9579,-0.9578,-0.9577,-0.9521,-0.952,-0.952,-0.952,-0.9425,-0.9423,-0.942,0,0,0,0,0,0,0,0,0,0,0,0,0,-0.9731,-0.9799,-0.9672,-0.9631,-0.9626,-0.9579,-0.9578,-0.9576,-0.9521,-0.952,-0.952,-0.952,-0.9426,-0.9423,-0.942,-0.9407,0,0,-0.9409,-0.9408,0,0,0,0,0,0,0,0,-0.9735,-0.9726,-0.9638,-0.9633,-0.9628,-0.9561,-0.9589,-0.9519,-0.9521,-0.9561,-0.952,-0.9519,-0.947,-0.9463,-0.9447,-0.9402,-0.9398,-0.9409,-0.9407,-0.9405,-0.9404,0,0,0,0,0,0,0,-0.974,-0.973,-0.9635,-0.9637,-0.9631,-0.9617,-0.9607,-0.9575,-0.9519,-0.9557,-0.9553,-0.9543,-0.9468,-0.945,-0.9444,-0.9397,-0.9409,-0.9406,-0.9404,-0.9403,-0.934,-0.934,0,0,0,0,0,0,-0.9751,-0.9734,-0.9638,-0.9632,-0.9682,-0.9615,-0.9604,-0.9583,-0.9519,-0.9509,-0.9543,-0.9541,-0.9456,-0.9448,-0.9441,-0.9423,-0.9405,-0.9402,-0.94,-0.934,-0.934,-0.9341,0,0,0,0,0,0,-0.9754,-0.9743,-0.9642,-0.9682,-0.9668,-0.9613,-0.9591,-0.9581,-0.9564,-0.9509,-0.9498,-0.9536,-0.9456,-0.9445,-0.9416,-0.9419,-0.9401,-0.9398,-0.9339,-0.934,-0.934,-0.9387,0,0,0,0,0,0,-0.9758,-0.9745,-0.9739,-0.9682,-0.9666,-0.9618,-0.9591,-0.958,-0.9558,-0.9554,-0.9499,-0.9489,-0.9455,-0.9422,-0.9413,-0.9414,-0.9395,-0.9339,-0.9339,-0.934,-0.9385,-0.9389,-0.9393,0,0,0,0,0,-0.9763,-0.9755,-0.9739,-0.9727,-0.9657,-0.9619,-0.9609,-0.957,-0.9559,-0.9553,-0.9518,-0.9491,-0.942,-0.9419,-0.9409,-0.9409,-0.9338,-0.9339,-0.934,-0.9383,-0.9389,-0.9393,0,0,0,0,0,0,-0.9812,-0.9746,-0.9728,-0.9701,-0.9666,-0.9609,-0.96,-0.9576,-0.9543,-0.954,-0.9492,-0.948,-0.9457,-0.9429,-0.943,-0.9395,-0.9376,-0.9375,-0.9413,-0.9417,-0.9421,-0.9428,-0.9392,0,0,0,0,0,-0.982,-0.9793,-0.9738,-0.9719,-0.9703,-0.9655,-0.9636,-0.9609,-0.9571,-0.9556,-0.9518,-0.9482,-0.9452,-0.9433,-0.9402,-0.9381,-0.937,-0.9376,-0.938,-0.9384,-0.9383,-0.9373,-0.9376,-0.9343,-0.9343,-0.9343,0,0,-0.9835,-0.9796,-0.9782,-0.9728,-0.9698,-0.9673,-0.9643,-0.9616,-0.9598,-0.9551,-0.9522,-0.9494,-0.9451,-0.9427,-0.9414,-0.9403,-0.939,-0.9385,-0.9388,-0.9386,-0.9374,-0.9378,-0.938,-0.9344,-0.9344,-0.9344,0,0,-0.985,-0.9818,-0.98,-0.9771,-0.9726,-0.9694,-0.969,-0.9638,-0.9618,-0.9588,-0.9553,-0.9531,-0.9479,-0.945,-0.9429,-0.9437,-0.9413,-0.9429,-0.9449,-0.9439,-0.9442,-0.9444,-0.9449,-0.9451,-0.9428,-0.9429,-0.9429,0,-0.9875,-0.9835,-0.9794,-0.9771,-0.9749,-0.9707,-0.969,-0.9663,-0.961,-0.9597,-0.9586,-0.9522,-0.949,-0.946,-0.9462,-0.9446,-0.9441,-0.9435,-0.9445,-0.9447,-0.9448,-0.9452,-0.9454,-0.9431,-0.9431,-0.943,-0.943,0,-0.9869,-0.9842,-0.9834,-0.9785,-0.9762,-0.9742,-0.9698,-0.968,-0.9656,-0.9626,-0.9598,-0.9558,-0.952,-0.951,-0.9485,-0.9477,-0.9473,-0.9454,-0.9435,-0.9454,-0.9458,-0.9459,-0.9434,-0.9433,-0.9433,-0.9432,0,0,-0.9911,-0.9842,-0.9839,-0.9818,-0.9766,-0.9745,-0.9724,-0.9687,-0.9674,-0.9639,-0.9622,-0.958,-0.9564,-0.954,-0.9512,-0.9503,-0.9515,-0.9486,-0.9484,-0.9494,-0.9507,-0.9522,-0.9525,-0.9499,-0.9499,-0.9499,-0.9511,0,-0.992,-0.9879,-0.9843,-0.9817,-0.9793,-0.9754,-0.9736,-0.9704,-0.9676,-0.9652,-0.9621,-0.9594,-0.9573,-0.9559,-0.9549,-0.9516,-0.9518,-0.9515,-0.9483,-0.9482,-0.9496,-0.9526,-0.9541,-0.9555,-0.9512,-0.9512,-0.9512,0,-0.9924,-0.9893,-0.9864,-0.9818,-0.9807,-0.9791,-0.9756,-0.9733,-0.9696,-0.9677,-0.9652,-0.9623,-0.9601,-0.9585,-0.9554,-0.9553,-0.9538,-0.9521,-0.952,-0.9516,-0.9499,-0.9525,-0.9558,-0.9561,-0.9514,-0.9513,-0.9513,0,-0.9959,-0.991,-0.9888,-0.987,-0.9815,-0.9806,-0.9782,-0.9745,-0.9726,-0.9696,-0.9683,-0.965,-0.9633,-0.9609,-0.9572,-0.9563,-0.9547,-0.9527,-0.9531,-0.9533,-0.953,-0.953,-0.9563,-0.9518,-0.9518,-0.9518,-0.9518,0,-0.9973,-0.9958,-0.9903,-0.9889,-0.9872,-0.9831,-0.9815,-0.9788,-0.9756,-0.9737,-0.9702,-0.9685,-0.9638,-0.9616,-0.9587,-0.9568,-0.956,-0.9545,-0.9538,-0.9548,-0.9551,-0.9539,-0.9537,-0.9519,-0.9519,-0.9519,-0.9518,0,-1.001,-0.9972,-0.9945,-0.9896,-0.9884,-0.9874,-0.9832,-0.9818,-0.9789,-0.9767,-0.9759,-0.9714,-0.9687,-0.9649,-0.9609,-0.959,-0.9576,-0.9563,-0.9588,-0.9584,-0.9592,-0.9593,-0.9618,-0.9621,-0.9574,-0.9575,-0.9575,0,-1.0021,-1.0009,-0.996,-0.9945,-0.9923,-0.9899,-0.9881,-0.9841,-0.9823,-0.9782,-0.9774,-0.9744,-0.9718,-0.9677,-0.9641,-0.9612,-0.96,-0.9611,-0.9595,-0.9607,-0.9602,-0.9604,-0.9603,-0.9615,-0.9615,-0.9616,-0.9616,0,-1.0047,-1.003,-1.0004,-0.9973,-0.9952,-0.9925,-0.9897,-0.9887,-0.9842,-0.9824,-0.9796,-0.9777,-0.9738,-0.971,-0.9676,-0.9653,-0.9628,-0.9622,-0.9622,-0.9633,-0.9649,-0.9643,-0.96,-0.9621,-0.9621,-0.9621,-0.962,-0.962,-1.0072,-1.006,-1.0025,-0.9998,-0.9973,-0.9949,-0.9934,-0.9905,-0.9881,-0.9847,-0.9825,-0.9799,-0.9765,-0.9718,-0.9697,-0.9677,-0.9666,-0.9665,-0.9665,-0.9666,-0.9671,-0.9652,-0.967,-0.967,-0.967,-0.967,-0.9669,0,-1.0097,-1.0073,-1.0049,-1.0012,-0.9992,-0.9971,-0.9939,-0.9924,-0.9902,-0.9873,-0.9849,-0.9819,-0.9793,-0.9756,-0.9727,-0.9719,-0.9707,-0.9713,-0.9713,-0.9709,-0.9681,-0.9685,-0.9723,-0.9723,-0.9723,-0.9723,-0.9723,-0.9723,-1.0108,-1.0088,-1.0067,-1.0036,-1.0011,-0.9986,-0.9971,-0.9949,-0.9926,-0.9894,-0.9872,-0.9849,-0.9817,-0.9787,-0.9762,-0.9752,-0.9744,-0.9754,-0.9741,-0.9716,-0.9711,-0.9706,-0.971,-0.9752,-0.9752,-0.9771,-0.9771,-0.9771]},{"header":{"parameterUnit":"m.s-1","parameterCategory":1,"la1":30.2991,"la2":30.254,"lo1":-89.0895,"lo2":-89.0444,"dy":0.0017,"dx":0.0017,"nx":28,"ny":28,"refTime":"2025-09-10T21:00:00:Z","depth":0,"parameterNumber":3,"parameterNumberName":"V-component_of_WINDS"},"data":[0,0,0,0,0,0,0,0,0,0,0,0,0,0,0,0,0,0,0,0,0,0,0,0,0,0,0,0,0,0,0,0,0,0,0,0,0,0,0,0,0,0,0,0,0,0,0,0,0,0,0,0,0,0,0,0,0,0,1.5674,1.5674,0,1.5674,1.5674,1.5674,1.5643,1.5642,1.5641,1.564,1.5637,1.5638,1.5639,0,0,0,0,0,0,0,0,0,0,0,0,0,1.5644,1.5645,1.5674,1.5674,1.5674,1.5674,1.5674,1.5674,1.5643,1.5642,1.5641,1.564,1.5637,1.5638,1.5639,0,0,0,0,0,0,0,0,0,0,0,0,0,1.5652,1.5645,1.5674,1.5659,1.5657,1.5674,1.5674,1.5674,1.5643,1.5642,1.564,1.5639,1.5637,1.5638,1.5639,1.5669,0,0,1.5642,1.5642,0,0,0,0,0,0,0,0,1.5652,1.5653,1.5661,1.566,1.5658,1.5657,1.5662,1.5672,1.5643,1.5648,1.564,1.5639,1.5645,1.5645,1.5647,1.5669,1.5669,1.5642,1.5643,1.5643,1.5643,0,0,0,0,0,0,0,1.5651,1.5653,1.5674,1.5661,1.5659,1.565,1.565,1.5664,1.5653,1.5648,1.5645,1.5646,1.5644,1.5647,1.5647,1.5669,1.5642,1.5643,1.5643,1.5644,1.5711,1.5712,0,0,0,0,0,0,1.5653,1.5653,1.5674,1.5674,1.5652,1.5652,1.5652,1.5659,1.5653,1.5651,1.5647,1.5645,1.5645,1.5646,1.5647,1.5679,1.5643,1.5644,1.5645,1.571,1.5711,1.5712,0,0,0,0,0,0,1.5653,1.5655,1.5674,1.5663,1.5664,1.5654,1.5662,1.5659,1.5662,1.5652,1.565,1.5652,1.5644,1.5645,1.5663,1.5678,1.5644,1.5645,1.5708,1.571,1.5712,1.5745,0,0,0,0,0,0,1.5652,1.5655,1.5668,1.5663,1.5665,1.5691,1.5663,1.566,1.5664,1.5661,1.5656,1.5655,1.5644,1.5662,1.5664,1.5679,1.5646,1.5707,1.5709,1.5711,1.5742,1.5747,1.5752,0,0,0,0,0,1.5651,1.5677,1.5669,1.5671,1.5681,1.5692,1.5693,1.5681,1.5666,1.5677,1.567,1.5655,1.5677,1.5664,1.5666,1.5682,1.5706,1.5708,1.5711,1.574,1.5746,1.5752,0,0,0,0,0,0,1.5684,1.5677,1.5667,1.5693,1.5693,1.5687,1.5701,1.5688,1.5693,1.5689,1.5673,1.5672,1.5691,1.5689,1.5674,1.5709,1.5688,1.5692,1.5709,1.5715,1.572,1.5719,1.5647,0,0,0,0,0,1.5695,1.5706,1.5698,1.5722,1.5723,1.5712,1.5717,1.5707,1.5706,1.5706,1.5701,1.5701,1.5707,1.5711,1.5717,1.5742,1.5739,1.5754,1.5759,1.5763,1.5765,1.5774,1.578,1.5721,1.5721,1.5721,0,0,1.5716,1.5713,1.5721,1.5728,1.5728,1.5737,1.5712,1.5725,1.5731,1.5708,1.5723,1.572,1.5718,1.5738,1.5747,1.5736,1.5781,1.5766,1.5769,1.5769,1.5778,1.5783,1.5788,1.5723,1.5723,1.5722,0,0,1.5759,1.576,1.5778,1.5777,1.5776,1.5769,1.5773,1.5768,1.5765,1.578,1.5762,1.5769,1.5782,1.578,1.578,1.5821,1.5805,1.5823,1.5848,1.5857,1.5862,1.5865,1.5877,1.5881,1.5826,1.5826,1.5826,0,1.5785,1.5801,1.5788,1.5801,1.5803,1.5783,1.5799,1.5799,1.58,1.5801,1.579,1.5803,1.5801,1.5819,1.5828,1.5831,1.5833,1.5823,1.5862,1.5866,1.5869,1.588,1.5884,1.5828,1.5828,1.5828,1.5827,0,1.5831,1.5842,1.5856,1.5857,1.5861,1.5876,1.5864,1.587,1.5859,1.5852,1.5866,1.5863,1.5866,1.587,1.586,1.5886,1.5879,1.5865,1.5844,1.5877,1.5886,1.5891,1.5831,1.583,1.583,1.5829,0,0,1.5894,1.5887,1.5892,1.5891,1.5888,1.5895,1.5908,1.5911,1.5914,1.5916,1.5924,1.5934,1.5921,1.5922,1.5912,1.592,1.5948,1.5905,1.5905,1.591,1.5972,1.598,1.5985,1.5939,1.594,1.5941,1.5971,0,1.5933,1.5955,1.5943,1.5965,1.5973,1.5953,1.5964,1.5962,1.5956,1.5961,1.5954,1.596,1.5943,1.5943,1.5951,1.5943,1.596,1.5941,1.5944,1.5944,1.5942,1.5991,1.6,1.6029,1.5975,1.5976,1.5976,0,1.5981,1.5983,1.6006,1.5999,1.6002,1.6012,1.6012,1.6018,1.6015,1.6009,1.601,1.5997,1.6006,1.5988,1.5999,1.5987,1.5988,1.5984,1.5984,1.5982,1.596,1.5986,1.6038,1.6041,1.5983,1.5982,1.5982,0,1.602,1.6029,1.6043,1.6043,1.6036,1.6043,1.604,1.6036,1.6038,1.6038,1.6038,1.604,1.604,1.6041,1.6028,1.6016,1.6041,1.6021,1.6034,1.6034,1.6038,1.6038,1.6088,1.6044,1.6044,1.6044,1.6044,0,1.6062,1.6076,1.606,1.6069,1.6083,1.6069,1.6083,1.6078,1.6074,1.608,1.6064,1.6069,1.6054,1.6057,1.6047,1.6057,1.6058,1.6052,1.6048,1.6052,1.6052,1.605,1.6046,1.6045,1.6045,1.6044,1.6044,0,1.6107,1.6098,1.6111,1.6103,1.6101,1.6112,1.6104,1.611,1.6103,1.611,1.6111,1.6099,1.6102,1.609,1.6091,1.6084,1.6097,1.6092,1.6098,1.6096,1.6108,1.6106,1.6156,1.6161,1.6117,1.6117,1.6118,0,1.6133,1.6143,1.6136,1.6139,1.6137,1.6142,1.6143,1.613,1.6132,1.6128,1.6134,1.6136,1.6136,1.6141,1.6132,1.6132,1.6125,1.6142,1.6125,1.6126,1.6121,1.612,1.6119,1.6145,1.6146,1.6146,1.6147,0,1.618,1.6174,1.6177,1.6177,1.618,1.618,1.6178,1.6181,1.6166,1.6169,1.6172,1.6172,1.6173,1.6174,1.6172,1.6167,1.6154,1.6153,1.6155,1.6157,1.6159,1.6155,1.6105,1.6151,1.6151,1.615,1.615,1.615,1.6213,1.622,1.6215,1.6219,1.6216,1.6215,1.622,1.6213,1.6215,1.6214,1.6207,1.621,1.6205,1.6201,1.6198,1.6199,1.6191,1.6195,1.6196,1.6196,1.6197,1.6161,1.6199,1.6199,1.6199,1.6199,1.6199,0,1.6256,1.6252,1.6255,1.6253,1.6255,1.6243,1.6241,1.6243,1.6246,1.6243,1.6243,1.6245,1.6246,1.6237,1.6235,1.6238,1.6232,1.6238,1.6236,1.6235,1.6206,1.6203,1.6243,1.6243,1.6243,1.6243,1.6243,1.6243,1.6278,1.6288,1.6281,1.6289,1.6285,1.6288,1.6287,1.6285,1.6282,1.6285,1.6286,1.628,1.6273,1.6271,1.6271,1.6268,1.6267,1.6275,1.6269,1.6242,1.6238,1.6233,1.623,1.6275,1.6275,1.6298,1.6298,1.6298]}]]